QPF
0.01 0.01 0.00 0.00 0.00 0.00 0.00 0.01 0.01 0.01 0.01 0.01 0.00 0.00 0.01 0.02 0.02 0.02 0.03 0.02 0.01 0.01 0.01 0.02 0.02 0.02 0.02 0.02 0.03 0.05 0.07 0.08 0.09 0.09 0.09 0.09 0.11 0.14
0.01 0.01 0.00 0.00 0.00 0.00 0.00 0.00 0.01 0.01 0.01 0.01 0.00 0.00 0.01 0.01 0.02 0.01 0.02 0.02 0.01 0.01 0.01 0.01 0.01 0.01 0.02 0.03 0.03 0.03 0.04 0.04 0.05 0.06 0.07 0.07 0.07 0.08
0.01 0.01 0.01 0.00 0.00 0.00 0.00 0.00 0.00 0.01 0.01 0.00 0.00 0.01 0.01 0.01 0.01 0.01 0.01 0.01 0.02 0.01 0.01 0.01 0.01 0.01 0.01 0.01 0.02 0.03 0.03 0.04 0.04 0.04 0.04 0.04 0.05 0.06
0.00 0.00 0.00 0.00 0.00 0.00 0.00 0.00 0.00 0.00 0.00 0.00 0.00 0.00 0.01 0.01 0.01 0.01 0.00 0.01 0.01 0.01 0.01 0.01 0.00 0.00 0.00 0.00 0.00 0.01 0.01 0.02 0.03 0.04 0.03 0.03 0.02 0.03
0.00 0.00 0.00 0.00 0.00 0.00 0.00 0.00 0.00 0.00 0.00 0.00 0.00 0.00 0.00 0.01 0.01 0.01 0.01 0.01 0.01 0.01 0.01 0.01 0.00 0.00 0.00 0.00 0.00 0.00 0.00 0.00 0.00 0.01 0.02 0.02 0.02 0.01
0.00 0.00 0.00 0.00 0.00 0.00 0.00 0.00 0.00 0.00 0.01 0.00 0.00 0.00 0.00 0.00 0.01 0.01 0.01 0.01 0.00 0.00 0.00 0.00 0.00 0.00 0.00 0.00 0.00 0.00 0.00 0.00 0.00 0.00 0.00 0.00 0.01 0.01
0.00 0.00 0.01 0.01 0.01 0.00 0.00 0.00 0.00 0.00 0.00 0.00 0.00 0.00 0.00 0.00 0.00 0.01 0.01 0.00 0.00 0.00 0.00 0.00 0.00 0.00 0.00 0.00 0.00 0.00 0.00 0.00 0.00 0.01 0.00 0.00 0.00 0.00
0.00 0.00 0.01 0.01 0.01 0.00 0.00 0.00 0.00 0.00 0.00 0.00 0.00 0.00 0.00 0.00 0.00 0.00 0.00 0.00 0.00 0.00 0.00 0.00 0.00 0.01 0.01 0.00 0.00 0.00 0.00 0.00 0.00 0.00 0.01 0.01 0.01 0.01
0.00 0.00 0.00 0.00 0.00 0.00 0.00 0.00 0.00 0.00 0.00 0.00 0.01 0.01 0.00 0.01 0.01 0.00 0.00 0.00 0.00 0.00 0.00 0.00 0.00 0.00 0.00 0.00 0.00 0.00 0.00 0.00 0.00 0.00 0.00 0.01 0.01 0.01
0.00 0.00 0.00 0.00 0.00 0.00 0.01 0.00 0.00 0.01 0.01 0.00 0.01 0.01 0.01 0.01 0.01 0.01 0.01 0.00 0.00 0.00 0.00 0.00 0.00 0.00 0.00 0.00 0.00 0.00 0.00 0.00 0.00 0.00 0.00 0.00 0.00 0.00
0.00 0.00 0.00 0.00 0.01 0.01 0.00 0.00 0.01 0.01 0.00 0.00 0.00 0.00 0.00 0.00 0.00 0.00 0.00 0.00 0.00 0.00 0.00 0.00 0.00 0.00 0.00 0.00 0.00 0.00 0.00 0.00 0.00 0.00 0.00 0.00 0.00 0.00
0.00 0.00 0.00 0.00 0.00 0.00 0.00 0.00 0.01 0.01 0.01 0.00 0.00 0.00 0.00 0.00 0.00 0.00 0.00 0.00 0.01 0.00 0.01 0.01 0.01 0.00 0.00 0.00 0.00 0.00 0.00 0.00 0.00 0.00 0.00 0.00 0.00 0.00
0.00 0.01 0.01 0.01 0.01 0.01 0.00 0.00 0.01 0.01 0.00 0.00 0.00 0.00 0.00 0.00 0.00 0.00 0.00 0.00 0.01 0.00 0.01 0.01 0.01 0.01 0.01 0.00 0.00 0.00 0.01 0.01 0.01 0.01 0.00 0.00 0.00 0.00
0.01 0.02 0.02 0.02 0.01 0.01 0.00 0.00 0.00 0.00 0.00 0.00 0.00 0.00 0.00 0.00 0.00 0.00 0.01 0.01 0.01 0.01 0.01 0.01 0.01 0.01 0.01 0.01 0.00 0.00 0.01 0.01 0.01 0.01 0.00 0.00 0.00 0.00
0.01 0.02 0.02 0.01 0.01 0.00 0.00 0.00 0.00 0.00 0.00 0.01 0.01 0.00 0.00 0.01 0.01 0.01 0.02 0.02 0.02 0.01 0.01 0.01 0.02 0.02 0.03 0.02 0.01 0.01 0.01 0.01 0.01 0.01 0.01 0.01 0.01 0.01
0.00 0.01 0.01 0.01 0.00 0.00 0.00 0.00 0.00 0.00 0.01 0.01 0.01 0.01 0.01 0.01 0.01 0.01 0.02 0.02 0.02 0.01 0.02 0.03 0.03 0.04 0.04 0.04 0.03 0.02 0.02 0.02 0.02 0.03 0.03 0.02 0.01 0.01
0.01 0.01 0.01 0.01 0.01 0.01 0.02 0.01 0.01 0.01 0.01 0.01 0.01 0.01 0.01 0.01 0.01 0.01 0.02 0.02 0.02 0.02 0.02 0.04 0.06 0.06 0.05 0.05 0.05 0.04 0.03 0.03 0.02 0.04 0.05 0.03 0.02 0.01
0.01 0.01 0.01 0.01 0.02 0.02 0.02 0.03 0.02 0.02 0.02 0.02 0.02 0.01 0.01 0.01 0.02 0.02 0.03 0.03 0.03 0.03 0.03 0.05 0.06 0.06 0.05 0.04 0.03 0.03 0.04 0.04 0.03 0.05 0.06 0.04 0.02 0.01
0.00 0.01 0.01 0.02 0.02 0.03 0.03 0.03 0.03 0.03 0.02 0.02 0.02 0.02 0.02 0.02 0.02 0.02 0.03 0.04 0.04 0.04 0.04 0.05 0.05 0.06 0.05 0.04 0.03 0.02 0.03 0.04 0.05 0.05 0.05 0.05 0.03 0.02
0.00 0.01 0.02 0.02 0.02 0.02 0.02 0.02 0.02 0.02 0.02 0.03 0.03 0.03 0.03 0.03 0.03 0.03 0.04 0.05 0.06 0.05 0.05 0.05 0.05 0.06 0.06 0.04 0.03 0.02 0.02 0.02 0.04 0.04 0.04 0.04 0.03 0.02
0.02 0.02 0.03 0.03 0.03 0.03 0.03 0.03 0.03 0.02 0.03 0.03 0.04 0.04 0.04 0.05 0.05 0.05 0.05 0.05 0.05 0.04 0.04 0.05 0.06 0.05 0.05 0.05 0.03 0.02 0.03 0.03 0.02 0.03 0.03 0.04 0.03 0.03
0.03 0.03 0.03 0.03 0.02 0.02 0.02 0.02 0.02 0.03 0.03 0.03 0.04 0.05 0.05 0.06 0.05 0.05 0.05 0.05 0.05 0.04 0.04 0.04 0.04 0.05 0.06 0.06 0.05 0.04 0.03 0.04 0.03 0.02 0.01 0.02 0.02 0.03
0.03 0.02 0.02 0.02 0.02 0.02 0.02 0.02 0.02 0.03 0.03 0.04 0.05 0.05 0.04 0.04 0.04 0.04 0.04 0.05 0.05 0.04 0.04 0.04 0.04 0.05 0.06 0.06 0.06 0.05 0.04 0.04 0.04 0.03 0.02 0.01 0.01 0.01
MSLP
1019.64 1019.62 1019.65 1019.69 1019.74 1019.78 1019.79 1019.77 1019.71 1019.62 1019.49 1019.34 1019.20 1019.06 1018.94 1018.86 1018.81 1018.80 1018.83 1018.90 1019.00 1019.12 1019.26 1019.39 1019.50 1019.59 1019.64 1019.66 1019.63 1019.58 1019.48 1019.37 1019.23 1019.09 1018.94 1018.79 1018.65 1018.52
1019.62 1019.63 1019.67 1019.72 1019.77 1019.82 1019.84 1019.82 1019.77 1019.67 1019.55 1019.40 1019.24 1019.07 1018.92 1018.79 1018.69 1018.62 1018.59 1018.60 1018.64 1018.71 1018.79 1018.89 1018.98 1019.06 1019.12 1019.15 1019.15 1019.11 1019.04 1018.94 1018.81 1018.66 1018.49 1018.31 1018.13 1017.96
1019.55 1019.59 1019.64 1019.70 1019.76 1019.81 1019.83 1019.82 1019.77 1019.68 1019.56 1019.41 1019.24 1019.07 1018.89 1018.73 1018.58 1018.46 1018.37 1018.31 1018.28 1018.28 1018.31 1018.35 1018.41 1018.47 1018.53 1018.57 1018.59 1018.58 1018.54 1018.47 1018.37 1018.23 1018.07 1017.88 1017.68 1017.47
1019.44 1019.50 1019.57 1019.64 1019.70 1019.74 1019.77 1019.76 1019.71 1019.64 1019.52 1019.38 1019.22 1019.04 1018.85 1018.67 1018.49 1018.32 1018.17 1018.05 1017.95 1017.87 1017.83 1017.82 1017.82 1017.85 1017.88 1017.92 1017.96 1017.98 1017.98 1017.95 1017.89 1017.78 1017.65 1017.47 1017.27 1017.05
1019.29 1019.37 1019.44 1019.51 1019.57 1019.62 1019.64 1019.63 1019.60 1019.53 1019.43 1019.30 1019.15 1018.98 1018.79 1018.60 1018.39 1018.19 1018.00 1017.81 1017.64 1017.50 1017.38 1017.29 1017.23 1017.20 1017.20 1017.22 1017.26 1017.30 1017.33 1017.34 1017.33 1017.27 1017.18 1017.04 1016.86 1016.65
1019.09 1019.17 1019.24 1019.31 1019.36 1019.40 1019.42 1019.42 1019.39 1019.34 1019.25 1019.14 1019.00 1018.84 1018.66 1018.47 1018.26 1018.04 1017.81 1017.57 1017.34 1017.13 1016.93 1016.76 1016.62 1016.52 1016.47 1016.45 1016.47 1016.51 1016.56 1016.61 1016.65 1016.65 1016.60 1016.51 1016.38 1016.20
1018.81 1018.88 1018.94 1019.00 1019.05 1019.08 1019.10 1019.11 1019.08 1019.04 1018.97 1018.87 1018.75 1018.60 1018.43 1018.24 1018.02 1017.79 1017.54 1017.27 1016.99 1016.71 1016.45 1016.20 1015.98 1015.81 1015.68 1015.61 1015.59 1015.61 1015.67 1015.74 1015.81 1015.86 1015.88 1015.85 1015.76 1015.64
1018.43 1018.48 1018.53 1018.57 1018.62 1018.65 1018.67 1018.68 1018.67 1018.63 1018.56 1018.47 1018.36 1018.21 1018.05 1017.86 1017.65 1017.41 1017.14 1016.85 1016.55 1016.22 1015.90 1015.59 1015.30 1015.04 1014.84 1014.70 1014.63 1014.61 1014.65 1014.73 1014.82 1014.91 1014.97 1015.00 1014.98 1014.91
1017.94 1017.97 1018.01 1018.05 1018.09 1018.12 1018.15 1018.17 1018.15 1018.12 1018.05 1017.96 1017.83 1017.69 1017.52 1017.32 1017.11 1016.87 1016.60 1016.31 1015.98 1015.64 1015.29 1014.93 1014.58 1014.26 1013.99 1013.77 1013.63 1013.56 1013.56 1013.62 1013.70 1013.81 1013.91 1013.98 1014.01 1013.99
1017.36 1017.38 1017.41 1017.45 1017.50 1017.54 1017.58 1017.59 1017.59 1017.54 1017.47 1017.35 1017.21 1017.04 1016.85 1016.65 1016.42 1016.18 1015.92 1015.64 1015.32 1014.98 1014.62 1014.24 1013.86 1013.49 1013.16 1012.88 1012.67 1012.53 1012.47 1012.48 1012.54 1012.63 1012.73 1012.82 1012.88 1012.90
1016.73 1016.75 1016.78 1016.83 1016.89 1016.95 1017.00 1017.02 1017.01 1016.96 1016.86 1016.72 1016.54 1016.34 1016.12 1015.89 1015.65 1015.41 1015.16 1014.89 1014.60 1014.29 1013.94 1013.57 1013.18 1012.80 1012.42 1012.08 1011.80 1011.59 1011.46 1011.40 1011.40 1011.45 1011.52 1011.60 1011.66 1011.69
1016.10 1016.14 1016.18 1016.24 1016.32 1016.39 1016.45 1016.48 1016.46 1016.39 1016.26 1016.09 1015.87 1015.62 1015.36 1015.10 1014.84 1014.60 1014.36 1014.12 1013.87 1013.60 1013.30 1012.96 1012.59 1012.20 1011.80 1011.42 1011.08 1010.80 1010.58 1010.43 1010.35 1010.33 1010.34 1010.38 1010.41 1010.42
1015.52 1015.57 1015.63 1015.71 1015.79 1015.88 1015.95 1015.97 1015.95 1015.86 1015.70 1015.49 1015.22 1014.93 1014.63 1014.33 1014.06 1013.81 1013.58 1013.38 1013.17 1012.95 1012.70 1012.41 1012.08 1011.71 1011.31 1010.90 1010.51 1010.16 1009.86 1009.62 1009.44 1009.33 1009.26 1009.22 1009.19 1009.16
1014.99 1015.05 1015.12 1015.21 1015.31 1015.40 1015.47 1015.49 1015.45 1015.34 1015.16 1014.91 1014.60 1014.27 1013.93 1013.60 1013.31 1013.05 1012.84 1012.66 1012.50 1012.34 1012.14 1011.91 1011.62 1011.28 1010.90 1010.48 1010.05 1009.64 1009.26 1008.93 1008.66 1008.45 1008.29 1008.16 1008.06 1007.96
1014.49 1014.56 1014.64 1014.73 1014.82 1014.91 1014.96 1014.97 1014.92 1014.79 1014.58 1014.30 1013.97 1013.61 1013.24 1012.89 1012.58 1012.32 1012.12 1011.96 1011.84 1011.72 1011.58 1011.40 1011.16 1010.85 1010.49 1010.07 1009.62 1009.17 1008.73 1008.33 1007.97 1007.67 1007.41 1007.20 1007.02 1006.86
1014.01 1014.08 1014.15 1014.22 1014.29 1014.35 1014.38 1014.37 1014.30 1014.16 1013.94 1013.65 1013.30 1012.92 1012.54 1012.18 1011.86 1011.59 1011.39 1011.25 1011.14 1011.05 1010.95 1010.81 1010.62 1010.35 1010.01 1009.60 1009.15 1008.67 1008.20 1007.74 1007.31 1006.94 1006.61 1006.32 1006.07 1005.85
1013.51 1013.57 1013.61 1013.65 1013.68 1013.70 1013.70 1013.66 1013.57 1013.41 1013.19 1012.90 1012.55 1012.18 1011.79 1011.43 1011.10 1010.84 1010.63 1010.49 1010.39 1010.31 1010.23 1010.12 1009.95 1009.71 1009.40 1009.02 1008.58 1008.10 1007.60 1007.12 1006.66 1006.23 1005.85 1005.51 1005.21 1004.94
1013.01 1013.03 1013.03 1013.02 1013.00 1012.97 1012.93 1012.86 1012.74 1012.58 1012.35 1012.07 1011.74 1011.38 1011.01 1010.65 1010.33 1010.06 1009.85 1009.69 1009.58 1009.50 1009.42 1009.31 1009.16 1008.95 1008.66 1008.31 1007.89 1007.43 1006.94 1006.45 1005.97 1005.52 1005.11 1004.74 1004.40 1004.10
1012.52 1012.49 1012.44 1012.37 1012.29 1012.21 1012.12 1012.02 1011.88 1011.71 1011.50 1011.24 1010.93 1010.59 1010.24 1009.90 1009.58 1009.30 1009.07 1008.89 1008.76 1008.66 1008.57 1008.46 1008.32 1008.12 1007.86 1007.53 1007.14 1006.70 1006.23 1005.76 1005.28 1004.83 1004.40 1004.00 1003.64 1003.31
1012.09 1012.02 1011.91 1011.78 1011.65 1011.51 1011.38 1011.24 1011.09 1010.92 1010.72 1010.48 1010.20 1009.89 1009.56 1009.23 1008.91 1008.63 1008.38 1008.18 1008.02 1007.89 1007.78 1007.65 1007.50 1007.31 1007.06 1006.76 1006.40 1005.99 1005.55 1005.09 1004.63 1004.17 1003.73 1003.31 1002.91 1002.55
1011.77 1011.66 1011.51 1011.33 1011.15 1010.97 1010.80 1010.64 1010.48 1010.31 1010.12 1009.90 1009.64 1009.36 1009.05 1008.73 1008.42 1008.12 1007.86 1007.63 1007.44 1007.27 1007.13 1006.98 1006.82 1006.63 1006.39 1006.10 1005.76 1005.38 1004.96 1004.50 1004.04 1003.57 1003.10 1002.65 1002.21 1001.79
1011.61 1011.47 1011.28 1011.07 1010.86 1010.66 1010.47 1010.30 1010.13 1009.96 1009.78 1009.58 1009.34 1009.07 1008.78 1008.47 1008.15 1007.85 1007.56 1007.30 1007.08 1006.88 1006.70 1006.52 1006.34 1006.13 1005.89 1005.61 1005.28 1004.90 1004.47 1004.02 1003.53 1003.03 1002.52 1002.01 1001.51 1001.02
1011.60 1011.45 1011.25 1011.03 1010.81 1010.60 1010.41 1010.23 1010.06 1009.90 1009.73 1009.53 1009.31 1009.05 1008.76 1008.45 1008.13 1007.80 1007.49 1007.20 1006.94 1006.70 1006.49 1006.27 1006.06 1005.83 1005.57 1005.27 1004.93 1004.53 1004.09 1003.60 1003.08 1002.53 1001.96 1001.37 1000.78 1000.20
Thickness
5705 5703 5704 5705 5705 5705 5704 5703 5699 5695 5695 5694 5695 5693 5690 5688 5685 5685 5684 5681 5680 5679 5679 5679 5678 5678 5678 5678 5678 5679 5679 5679 5680 5680 5680 5681 5680 5680
5700 5699 5699 5703 5702 5702 5701 5700 5699 5696 5693 5695 5692 5692 5687 5687 5684 5683 5682 5680 5679 5678 5677 5676 5675 5675 5675 5675 5675 5675 5675 5675 5676 5676 5676 5676 5676 5676
5698 5698 5696 5696 5698 5699 5698 5697 5696 5694 5690 5691 5691 5689 5683 5682 5682 5681 5681 5680 5681 5677 5675 5674 5673 5672 5672 5672 5672 5672 5671 5671 5671 5672 5671 5672 5672 5672
5697 5695 5694 5694 5692 5693 5693 5693 5691 5688 5687 5683 5685 5686 5682 5680 5679 5677 5680 5681 5680 5677 5675 5673 5671 5670 5670 5669 5669 5668 5668 5668 5667 5667 5667 5667 5667 5667
5695 5694 5692 5691 5689 5690 5688 5689 5689 5688 5684 5683 5683 5682 5681 5680 5677 5677 5679 5676 5677 5678 5675 5673 5671 5669 5668 5667 5667 5666 5665 5665 5664 5663 5663 5663 5663 5663
5693 5691 5691 5689 5687 5686 5685 5683 5682 5681 5680 5680 5680 5680 5679 5678 5675 5675 5676 5677 5676 5677 5675 5673 5671 5669 5668 5667 5665 5664 5663 5662 5661 5660 5660 5659 5659 5659
5690 5689 5688 5686 5683 5681 5683 5682 5679 5678 5679 5678 5677 5677 5677 5673 5673 5674 5672 5672 5674 5674 5673 5673 5673 5672 5671 5668 5665 5663 5661 5659 5658 5657 5656 5656 5655 5655
5688 5687 5686 5682 5679 5676 5674 5673 5671 5672 5673 5672 5673 5672 5668 5669 5668 5667 5667 5667 5666 5671 5668 5668 5670 5670 5670 5669 5667 5662 5658 5656 5654 5653 5652 5652 5651 5651
5686 5684 5686 5686 5679 5679 5674 5669 5668 5665 5663 5664 5666 5665 5665 5666 5662 5662 5661 5660 5659 5662 5662 5662 5665 5666 5667 5667 5663 5659 5656 5653 5651 5650 5649 5648 5647 5647
5684 5683 5681 5680 5679 5676 5674 5673 5671 5668 5664 5660 5661 5661 5661 5659 5657 5655 5654 5654 5656 5658 5657 5656 5660 5662 5663 5662 5659 5656 5653 5650 5648 5646 5645 5644 5643 5642
5683 5681 5679 5677 5673 5668 5667 5667 5666 5666 5663 5660 5658 5656 5654 5651 5649 5649 5651 5651 5654 5657 5658 5654 5654 5656 5657 5657 5656 5652 5649 5647 5645 5643 5641 5640 5639 5637
5681 5679 5674 5673 5669 5664 5663 5663 5661 5661 5661 5660 5654 5652 5651 5650 5646 5642 5645 5646 5648 5650 5653 5648 5647 5647 5647 5651 5651 5648 5645 5643 5641 5640 5638 5636 5634 5632
5681 5680 5678 5670 5664 5659 5657 5658 5657 5655 5654 5654 5654 5654 5653 5651 5648 5644 5642 5640 5641 5642 5645 5641 5639 5638 5637 5639 5642 5642 5641 5640 5638 5637 5634 5632 5630 5627
5676 5677 5675 5666 5660 5655 5652 5652 5648 5644 5648 5650 5650 5650 5650 5649 5648 5644 5640 5636 5633 5632 5632 5630 5629 5627 5627 5629 5632 5635 5634 5633 5632 5631 5630 5629 5625 5623
5672 5669 5664 5657 5653 5651 5647 5645 5641 5642 5644 5645 5645 5645 5645 5644 5640 5637 5634 5630 5627 5626 5626 5623 5620 5620 5619 5619 5622 5624 5624 5625 5624 5623 5622 5621 5621 5619
5662 5661 5655 5651 5648 5647 5646 5643 5641 5642 5642 5641 5640 5640 5639 5637 5633 5631 5628 5626 5623 5624 5623 5619 5616 5612 5610 5611 5611 5612 5614 5614 5615 5614 5613 5612 5612 5613
5661 5658 5656 5654 5651 5649 5647 5645 5643 5640 5636 5634 5633 5632 5630 5628 5626 5624 5620 5617 5615 5615 5616 5616 5612 5608 5605 5601 5601 5604 5604 5605 5606 5606 5602 5602 5604 5605
5650 5652 5651 5649 5647 5645 5644 5641 5638 5635 5632 5629 5626 5624 5622 5620 5618 5616 5613 5609 5607 5607 5606 5605 5602 5599 5597 5598 5595 5595 5596 5596 5597 5597 5594 5593 5596 5599
5642 5645 5644 5642 5640 5638 5635 5633 5631 5629 5625 5621 5618 5615 5613 5611 5608 5606 5604 5601 5599 5597 5596 5594 5591 5587 5586 5589 5594 5588 5586 5587 5586 5586 5586 5585 5587 5590
5639 5639 5637 5635 5632 5630 5628 5625 5623 5620 5616 5612 5609 5606 5603 5600 5598 5596 5595 5592 5589 5588 5586 5585 5583 5580 5577 5577 5580 5581 5577 5576 5576 5576 5577 5578 5580 5582
5635 5632 5630 5627 5624 5621 5618 5614 5611 5608 5605 5602 5599 5596 5593 5591 5588 5586 5584 5582 5577 5576 5575 5575 5574 5569 5568 5566 5567 5572 5572 5569 5567 5565 5566 5566 5569 5572
5628 5625 5622 5618 5614 5610 5607 5603 5600 5596 5593 5590 5588 5585 5582 5579 5577 5575 5573 5571 5569 5567 5566 5565 5564 5561 5558 5556 5558 5561 5562 5562 5561 5558 5557 5557 5558 5562
5617 5614 5611 5607 5603 5599 5596 5591 5588 5586 5583 5580 5577 5574 5572 5569 5566 5564 5562 5560 5558 5557 5555 5553 5553 5551 5550 5548 5548 5549 5551 5552 5552 5552 5554 5554 5552 5552